KE1THD Weather Reports


time (UTC)temp
C
wind
direction
speed
KPH
gust
KPH
rain 1hr
cm
rain 24hr
cm
rain mn
cm
humidity
%
barometer
mb
20260906065641 22 88 3.2 4.8 0.00 0.00 0.00 88 1017.2
20260906065136 22 206 1.6 1.6 0.00 0.00 0.00 87 1017.3
20260906064632 22 205 0.0 1.6 0.00 0.00 0.00 87 1017.2
20260906064127 22 184 1.6 1.6 0.00 0.00 0.00 87 1017.2
20260906063622 22 184 3.2 3.2 0.00 0.00 0.00 87 1017.2
20260906063118 22 175 1.6 3.2 0.00 0.00 0.00 86 1017.2
20260906062614 22 215 3.2 3.2 0.00 0.00 0.00 86 1017.2
20260906062112 22 200 1.6 1.6 0.00 0.00 0.00 86 1017.4
20260906061609 22 188 1.6 1.6 0.00 0.00 0.00 86 1017.2
20260906061108 22 204 1.6 1.6 0.00 0.00 0.00 86 1017.3
20260906060605 22 212 1.6 1.6 0.00 0.00 0.00 86 1017.3
20260906055557 22 203 0.0 0.0 0.00 0.00 0.00 86 1017.1
20260906055053 22 218 0.0 0.0 0.00 0.00 0.00 86 1017.2
20260906054553 22 216 0.0 0.0 0.00 0.00 0.00 85 1017.1
20260906054048 22 193 0.0 1.6 0.00 0.00 0.00 85 1017.3
20260906053544 23 200 1.6 1.6 0.00 0.00 0.00 85 1017.1
20260906053039 23 144 4.8 9.7 0.00 0.00 0.00 85 1017.1
20260906052535 23 232 0.0 1.6 0.00 0.00 0.00 84 1017.1
20260906052032 23 331 1.6 1.6 0.00 0.00 0.00 84 1017.3
20260906051527 23 197 1.6 1.6 0.00 0.00 0.00 84 1017.1
20260906051023 23 212 1.6 1.6 0.00 0.00 0.00 84 1017.2
20260906050518 23 198 1.6 3.2 0.00 0.00 0.00 84 1017.1
20260906050012 23 238 3.2 4.8 0.00 0.00 0.00 84 1017.0
20260906045510 23 219 0.0 0.0 0.00 0.00 0.00 84 1017.2
20260906045007 23 217 0.0 1.6 0.00 0.00 0.00 84 1017.1
20260906044502 23 265 4.8 8.0 0.00 0.00 0.00 84 1017.0
20260906043957 23 215 0.0 0.0 0.00 0.00 0.00 84 1017.0
20260906043453 23 198 0.0 0.0 0.00 0.00 0.00 84 1016.5
20260906042949 23 200 1.6 3.2 0.00 0.00 0.00 85 1016.7
20260906042448 23 218 3.2 4.8 0.00 0.00 0.00 85 1016.6
20260906041948 23 284 3.2 3.2 0.00 0.00 0.00 85 1016.5
20260906041444 23 316 1.6 3.2 0.00 0.00 0.00 86 1016.5
20260906040943 23 38 4.8 4.8 0.00 0.00 0.00 86 1016.5
20260906040439 23 196 1.6 4.8 0.00 0.00 0.00 86 1016.2
20260906035934 23 224 0.0 0.0 0.00 0.00 0.00 86 1016.2
20260906035429 23 223 1.6 1.6 0.00 0.00 0.00 86 1016.3
20260906034924 23 216 0.0 0.0 0.00 0.00 0.00 86 1016.2
20260906034419 23 230 1.6 1.6 0.00 0.00 0.00 86 1015.9
20260906033915 23 215 0.0 0.0 0.00 0.00 0.00 85 1015.8
20260906033415 23 223 1.6 1.6 0.00 0.00 0.00 85 1016.1
20260906032910 23 232 1.6 1.6 0.00 0.00 0.00 85 1016.1
20260906032407 23 237 1.6 1.6 0.00 0.00 0.00 85 1016.1
20260906031901 23 238 1.6 1.6 0.00 0.00 0.00 85 1016.0
20260906031356 23 215 0.0 0.0 0.00 0.00 0.00 85 1015.9
20260906030851 23 214 0.0 0.0 0.00 0.00 0.00 85 1015.9
20260906030346 23 208 0.0 1.6 0.00 0.00 0.00 85 1015.7
20260906025841 23 213 0.0 0.0 0.00 0.00 0.00 85 1015.7
20260906025335 23 215 0.0 0.0 0.00 0.00 0.00 85 1015.7
20260906024834 23 198 1.6 1.6 0.00 0.00 0.00 85 1015.7
20260906024333 23 203 1.6 1.6 0.00 0.00 0.00 85 1015.7
20260906023829 23 204 0.0 0.0 0.00 0.00 0.00 85 1015.4
20260906023324 23 206 1.6 1.6 0.00 0.00 0.00 85 1015.6
20260906022820 23 206 0.0 0.0 0.00 0.00 0.00 85 1015.4
20260906022315 23 209 0.0 0.0 0.00 0.00 0.00 85 1015.6
20260906021810 23 201 0.0 0.0 0.00 0.00 0.00 84 1015.4
20260906021304 23 188 0.0 0.0 0.00 0.00 0.00 84 1015.6
20260906020759 23 209 0.0 1.6 0.00 0.00 0.00 84 1015.3
20260906020259 23 161 1.6 1.6 0.00 0.00 0.00 85 1015.2
20260906015759 23 230 0.0 0.0 0.00 0.00 0.00 85 1014.8
20260906015257 23 208 0.0 0.0 0.00 0.00 0.00 84 1015.1
20260906014752 23 216 0.0 0.0 0.00 0.00 0.00 84 1014.8
20260906014248 23 213 0.0 0.0 0.00 0.00 0.00 84 1015.0
20260906013744 24 242 1.6 1.6 0.00 0.00 0.00 84 1015.1
20260906013243 24 205 0.0 1.6 0.00 0.00 0.00 84 1014.7
20260906012739 24 181 0.0 0.0 0.00 0.00 0.00 84 1015.0
20260906012233 24 220 1.6 1.6 0.00 0.00 0.00 83 1015.0
20260906011729 24 210 0.0 0.0 0.00 0.00 0.00 83 1015.0
20260906011223 24 227 0.0 1.6 0.00 0.00 0.00 83 1014.8
20260906010719 25 215 1.6 1.6 0.00 0.00 0.00 83 1015.2
20260906010215 25 219 0.0 0.0 0.00 0.00 0.00 82 1015.0
20260906005715 25 317 3.2 4.8 0.00 0.00 0.00 82 1015.0
20260906005209 25 207 0.0 0.0 0.00 0.00 0.00 82 1015.1
20260906004708 25 302 1.6 3.2 0.00 0.00 0.00 81 1015.2
20260906004203 25 203 1.6 3.2 0.00 0.00 0.00 81 1015.1
20260906003658 25 229 1.6 1.6 0.00 0.00 0.00 81 1014.7
20260906003154 25 223 3.2 3.2 0.00 0.00 0.00 81 1014.7
20260906002654 26 71 6.4 8.0 0.00 0.00 0.00 80 1015.0
20260906002148 26 223 1.6 1.6 0.00 0.00 0.00 80 1014.8
20260906001643 26 184 1.6 3.2 0.00 0.00 0.00 79 1015.2
20260906001138 26 220 4.8 4.8 0.00 0.00 0.00 79 1014.8
20260906000634 26 220 3.2 8.0 0.00 0.00 0.00 78 1014.8
20260906000129 26 219 1.6 1.6 0.00 0.00 0.00 78 1014.6
20260905235627 27 198 6.4 11.3 0.00 0.00 0.00 78 1014.7
20260905235123 27 147 3.2 4.8 0.00 0.00 0.00 77 1014.6
20260905234618 28 237 6.4 8.0 0.00 0.00 0.00 76 1014.6
20260905234113 28 231 3.2 3.2 0.00 0.00 0.00 76 1014.5
20260905233608 28 220 0.0 1.6 0.00 0.00 0.00 76 1014.5
20260905233103 28 91 4.8 4.8 0.00 0.00 0.00 76 1014.6
20260905232558 28 44 11.3 12.9 0.00 0.00 0.00 76 1014.4
20260905232054 28 15 9.7 12.9 0.00 0.00 0.00 75 1014.4
20260905231549 28 284 4.8 4.8 0.00 0.00 0.00 75 1014.5
20260905231045 29 245 3.2 4.8 0.00 0.00 0.00 75 1014.3
20260905230544 29 72 8.0 9.7 0.00 0.00 0.00 76 1014.4
20260905230043 29 354 8.0 9.7 0.00 0.00 0.00 76 1014.2
20260905225538 29 335 6.4 8.0 0.00 0.00 0.00 76 1014.4
20260905225032 30 150 4.8 4.8 0.00 0.00 0.00 75 1014.2
20260905224527 30 184 4.8 8.0 0.00 0.00 0.00 76 1014.4
20260905224026 29 341 14.5 17.7 0.00 0.00 0.00 76 1014.2
20260905223525 30 16 9.7 12.9 0.00 0.00 0.00 76 1014.3
20260905223020 30 349 14.5 20.9 0.00 0.00 0.00 75 1014.0
20260905222514 30 265 9.7 11.3 0.00 0.00 0.00 74 1014.3
20260905222009 30 137 8.0 9.7 0.00 0.00 0.00 74 1014.0
20260905221506 30 253 6.4 9.7 0.00 0.00 0.00 74 1014.0
20260905221002 30 350 9.7 12.9 0.00 0.00 0.00 73 1013.9
20260905220457 30 330 8.0 12.9 0.00 0.00 0.00 73 1013.9
20260905215956 30 21 11.3 12.9 0.00 0.00 0.00 74 1014.3
20260905215452 30 9 12.9 17.7 0.00 0.00 0.00 74 1014.2
20260905214948 30 9 14.5 20.9 0.00 0.00 0.00 74 1014.0
20260905214443 31 94 6.4 8.0 0.00 0.00 0.00 73 1014.0
20260905213938 30 197 6.4 9.7 0.00 0.00 0.00 73 1013.8
20260905213434 31 8 11.3 16.1 0.00 0.00 0.00 73 1013.9
20260905212929 32 270 3.2 3.2 0.00 0.00 0.00 70 1014.1
20260905212424 32 169 3.2 4.8 0.00 0.00 0.00 69 1013.9
20260905211923 32 200 0.0 0.0 0.00 0.00 0.00 69 1014.0
20260905211419 32 302 1.6 3.2 0.00 0.00 0.00 71 1013.7
20260905210915 31 195 1.6 1.6 0.00 0.00 0.00 71 1013.7
20260905210414 31 298 4.8 8.0 0.00 0.00 0.00 72 1013.6
20260905205914 31 339 14.5 20.9 0.00 0.00 0.00 71 1014.0
20260905205404 32 314 4.8 9.7 0.00 0.00 0.00 71 1013.8
20260905204902 32 297 1.6 8.0 0.00 0.00 0.00 71 1013.9
20260905204359 32 181 0.0 1.6 0.00 0.00 0.00 71 1014.0
20260905203857 32 122 6.4 9.7 0.00 0.00 0.00 70 1014.0
20260905203353 31 303 4.8 4.8 0.00 0.00 0.00 71 1014.0
20260905202848 31 2 4.8 8.0 0.00 0.00 0.00 73 1014.2
20260905202343 31 25 11.3 12.9 0.00 0.00 0.00 70 1014.1
20260905201838 32 10 8.0 11.3 0.00 0.00 0.00 70 1014.2
20260905201334 32 351 8.0 11.3 0.00 0.00 0.00 68 1014.1
20260905200828 32 353 14.5 16.1 0.00 0.00 0.00 67 1013.8
20260905200326 31 203 6.4 9.7 0.00 0.00 0.00 69 1013.9
20260905195822 32 41 9.7 14.5 0.00 0.00 0.00 69 1013.7
20260905195317 31 215 0.0 1.6 0.00 0.00 0.00 68 1013.9
20260905194813 32 13 11.3 16.1 0.00 0.00 0.00 68 1014.0
20260905194307 32 231 4.8 4.8 0.00 0.00 0.00 67 1014.0
20260905193806 32 231 1.6 1.6 0.00 0.00 0.00 68 1013.9
20260905193301 32 275 3.2 4.8 0.00 0.00 0.00 69 1014.2
20260905192756 32 240 1.6 1.6 0.00 0.00 0.00 69 1014.1
20260905192253 32 227 3.2 4.8 0.00 0.00 0.00 68 1014.2
20260905191752 33 25 3.2 3.2 0.00 0.00 0.00 67 1014.3
20260905191250 33 231 1.6 3.2 0.00 0.00 0.00 65 1014.3
20260905190749 33 235 0.0 0.0 0.00 0.00 0.00 67 1014.3
20260905190248 32 326 8.0 11.3 0.00 0.00 0.00 68 1014.3
20260905185742 32 204 3.2 3.2 0.00 0.00 0.00 68 1014.4
20260905185237 32 352 9.7 11.3 0.00 0.00 0.00 68 1014.4
20260905184736 33 260 4.8 8.0 0.00 0.00 0.00 67 1014.3
20260905184236 33 318 4.8 4.8 0.00 0.00 0.00 66 1014.4
20260905183730 33 219 3.2 3.2 0.00 0.00 0.00 66 1014.2
20260905183225 33 345 9.7 11.3 0.00 0.00 0.00 64 1014.5
20260905182719 33 216 1.6 1.6 0.00 0.00 0.00 65 1014.4
20260905182219 32 217 1.6 1.6 0.00 0.00 0.00 65 1014.5
20260905181714 32 247 3.2 3.2 0.00 0.00 0.00 66 1014.6
20260905181213 32 5 9.7 12.9 0.00 0.00 0.00 67 1014.6
20260905180708 32 354 4.8 9.7 0.00 0.00 0.00 67 1014.5
20260905180203 32 225 1.6 1.6 0.00 0.00 0.00 68 1014.5
20260905175703 32 304 1.6 3.2 0.00 0.00 0.00 67 1014.6
20260905175157 32 5 8.0 9.7 0.00 0.00 0.00 68 1014.5
20260905174653 32 355 11.3 11.3 0.00 0.00 0.00 66 1014.6
20260905174149 32 224 1.6 3.2 0.00 0.00 0.00 66 1014.6
20260905173645 34 345 6.4 8.0 0.00 0.00 0.00 63 1014.8
20260905173140 34 203 3.2 3.2 0.00 0.00 0.00 62 1014.5
20260905172639 33 218 0.0 1.6 0.00 0.00 0.00 64 1014.7
20260905172133 35 208 0.0 0.0 0.00 0.00 0.00 62 1014.7
20260905171630 34 210 0.0 1.6 0.00 0.00 0.00 63 1015.0
20260905171125 33 35 1.6 1.6 0.00 0.00 0.00 64 1015.0
20260905170622 33 237 1.6 3.2 0.00 0.00 0.00 65 1015.0
20260905170117 33 27 4.8 8.0 0.00 0.00 0.00 67 1014.7
20260905165611 31 204 0.0 0.0 0.00 0.00 0.00 67 1015.0
20260905165107 32 337 6.4 9.7 0.00 0.00 0.00 67 1015.2
20260905164601 32 55 3.2 3.2 0.00 0.00 0.00 66 1015.1
20260905164056 33 277 1.6 3.2 0.00 0.00 0.00 65 1015.3
20260905163552 33 218 1.6 1.6 0.00 0.00 0.00 67 1015.0
20260905163048 33 243 0.0 1.6 0.00 0.00 0.00 63 1015.2
20260905162545 33 229 3.2 3.2 0.00 0.00 0.00 63 1015.1
20260905162044 33 217 1.6 3.2 0.00 0.00 0.00 65 1015.1
20260905161543 32 237 1.6 1.6 0.00 0.00 0.00 67 1015.0
20260905161041 30 210 0.0 0.0 0.00 0.00 0.00 73 1015.0
20260905160540 30 306 8.0 11.3 0.00 0.00 0.00 73 1015.2
20260905160035 30 340 4.8 8.0 0.00 0.00 0.00 72 1015.0
20260905155535 31 353 4.8 9.7 0.00 0.00 0.00 72 1015.2
20260905155033 30 198 4.8 4.8 0.00 0.00 0.00 73 1015.0
20260905154528 30 255 8.0 11.3 0.00 0.00 0.00 73 1015.1
20260905154024 30 17 8.0 9.7 0.00 0.00 0.00 73 1014.8
20260905153519 31 210 1.6 3.2 0.00 0.00 0.00 73 1014.8
20260905153014 31 200 3.2 4.8 0.00 0.00 0.00 73 1015.0
20260905152514 30 215 1.6 1.6 0.00 0.00 0.00 75 1014.8
20260905152009 30 356 9.7 11.3 0.00 0.00 0.00 75 1014.8
20260905151504 30 256 1.6 3.2 0.00 0.00 0.00 73 1014.8
20260905150959 30 206 3.2 3.2 0.00 0.00 0.00 73 1014.8
20260905150454 31 213 1.6 1.6 0.00 0.00 0.00 70 1014.7
20260905145951 31 221 0.0 1.6 0.00 0.00 0.00 71 1014.6
20260905145445 31 229 1.6 1.6 0.00 0.00 0.00 71 1014.4
20260905144945 30 206 0.0 0.0 0.00 0.00 0.00 75 1014.6
20260905144440 31 180 1.6 3.2 0.00 0.00 0.00 72 1014.3
20260905143939 30 197 0.0 1.6 0.00 0.00 0.00 74 1014.5
20260905143438 29 197 0.0 1.6 0.00 0.00 0.00 78 1014.3
20260905142933 28 226 1.6 1.6 0.00 0.00 0.00 79 1014.3
20260905142432 28 302 6.4 8.0 0.00 0.00 0.00 79 1014.0
20260905141928 28 200 1.6 3.2 0.00 0.00 0.00 81 1014.1
20260905141422 28 355 6.4 9.7 0.00 0.00 0.00 82 1013.9
20260905140919 28 329 8.0 9.7 0.00 0.00 0.00 83 1014.3
20260905140414 28 268 4.8 4.8 0.00 0.00 0.00 82 1014.0
20260905135912 28 211 1.6 1.6 0.00 0.00 0.00 83 1013.9
20260905135408 27 263 3.2 3.2 0.00 0.00 0.00 83 1014.0
20260905134904 27 222 0.0 1.6 0.00 0.00 0.00 84 1014.0
20260905134402 27 233 0.0 0.0 0.00 0.00 0.00 85 1013.9
20260905133857 27 219 1.6 1.6 0.00 0.00 0.00 86 1014.0
20260905133352 26 352 4.8 4.8 0.00 0.00 0.00 87 1014.1
20260905132851 26 281 1.6 3.2 0.00 0.00 0.00 87 1014.0
20260905132346 26 246 3.2 3.2 0.00 0.00 0.00 87 1013.7
20260905131840 26 266 1.6 1.6 0.00 0.00 0.00 87 1013.8
20260905131336 26 208 1.6 1.6 0.00 0.00 0.00 88 1013.9
20260905130832 26 218 1.6 1.6 0.00 0.00 0.00 88 1013.7
20260905130330 25 218 1.6 1.6 0.00 0.00 0.00 89 1014.0
20260905125826 25 239 1.6 1.6 0.00 0.00 0.00 90 1014.1
20260905125321 25 4 4.8 8.0 0.00 0.00 0.00 91 1013.9
20260905124817 25 278 3.2 3.2 0.00 0.00 0.00 92 1013.9
20260905124313 25 246 3.2 3.2 0.00 0.00 0.00 92 1013.8
20260905123808 25 222 0.0 0.0 0.00 0.00 0.00 93 1013.8
20260905123305 24 215 0.0 0.0 0.00 0.00 0.00 93 1013.8
20260905122804 24 214 0.0 0.0 0.00 0.00 0.00 93 1013.7
20260905122306 24 214 0.0 0.0 0.00 0.00 0.00 93 1013.7
20260905121759 24 292 0.0 0.0 0.00 0.00 0.00 93 1013.8
20260905121255 24 284 0.0 0.0 0.00 0.00 0.00 93 1013.7
20260905120753 24 248 0.0 0.0 0.00 0.00 0.00 93 1013.4
20260905120248 24 231 0.0 0.0 0.00 0.00 0.00 94 1013.3
20260905115743 24 222 0.0 0.0 0.00 0.00 0.00 93 1013.2
20260905115243 24 223 0.0 0.0 0.00 0.00 0.00 93 1013.0
20260905114742 24 218 0.0 0.0 0.00 0.00 0.00 93 1012.9
20260905114241 24 218 0.0 0.0 0.00 0.00 0.00 93 1012.8
20260905113740 24 220 0.0 0.0 0.00 0.00 0.00 93 1012.8
20260905113236 24 217 0.0 0.0 0.00 0.00 0.00 93 1012.9
20260905112731 24 214 0.0 0.0 0.00 0.00 0.00 93 1012.7
20260905112226 24 218 0.0 0.0 0.00 0.00 0.00 92 1012.8
20260905111721 24 215 0.0 0.0 0.00 0.00 0.00 92 1012.6
20260905111215 24 217 0.0 0.0 0.00 0.00 0.00 92 1012.6
20260905110715 24 218 0.0 0.0 0.00 0.00 0.00 92 1012.7
20260905110209 25 219 0.0 0.0 0.00 0.00 0.00 92 1012.9
20260905105705 25 213 0.0 0.0 0.00 0.00 0.00 91 1012.8
20260905105203 25 219 0.0 0.0 0.00 0.00 0.00 91 1012.6
20260905104658 25 212 0.0 0.0 0.00 0.00 0.00 91 1012.6
20260905104155 25 215 0.0 0.0 0.00 0.00 0.00 91 1012.5
20260905103649 25 228 0.0 0.0 0.00 0.00 0.00 91 1012.6
20260905103145 25 226 0.0 0.0 0.00 0.00 0.00 90 1012.7
20260905102641 25 230 0.0 1.6 0.00 0.00 0.00 90 1012.7
20260905102137 25 221 0.0 0.0 0.00 0.00 0.00 90 1012.6
20260905101635 25 219 0.0 0.0 0.00 0.00 0.00 90 1012.7
20260905101134 25 226 0.0 1.6 0.00 0.00 0.00 89 1012.6
20260905100630 25 217 0.0 0.0 0.00 0.00 0.00 89 1012.6
20260905100125 25 236 0.0 1.6 0.00 0.00 0.00 89 1012.8
20260905095619 25 218 0.0 1.6 0.00 0.00 0.00 89 1012.8
20260905095114 26 242 1.6 1.6 0.00 0.00 0.00 89 1012.9
20260905094610 26 228 1.6 1.6 0.00 0.00 0.00 89 1012.9
20260905094109 26 253 1.6 1.6 0.00 0.00 0.00 89 1013.0
20260905093609 26 268 1.6 1.6 0.00 0.00 0.00 89 1012.8
20260905093105 26 240 1.6 1.6 0.00 0.00 0.00 88 1013.0
20260905092605 26 235 1.6 1.6 0.00 0.00 0.00 89 1013.0
20260905092101 26 239 1.6 1.6 0.00 0.00 0.00 89 1013.0
20260905091600 26 246 3.2 3.2 0.00 0.00 0.00 89 1013.0
20260905091055 26 250 1.6 1.6 0.00 0.00 0.00 90 1012.8
20260905090555 25 187 0.0 1.6 0.00 0.00 0.00 90 1012.6
20260905090050 25 202 0.0 1.6 0.00 0.00 0.00 91 1012.7
20260905085548 25 200 1.6 1.6 0.00 0.00 0.00 91 1012.7
20260905085044 25 209 0.0 0.0 0.00 0.00 0.00 91 1012.6
20260905084544 25 201 0.0 1.6 0.00 0.00 0.00 91 1012.8
20260905084039 25 202 0.0 0.0 0.00 0.00 0.00 91 1013.1
20260905083533 25 209 0.0 0.0 0.00 0.00 0.00 90 1012.8
20260905083030 25 210 0.0 0.0 0.00 0.00 0.00 90 1012.9
20260905082525 25 205 0.0 0.0 0.00 0.00 0.00 90 1013.0
20260905082022 26 206 0.0 0.0 0.00 0.00 0.00 90 1013.1
20260905081521 26 206 0.0 0.0 0.00 0.00 0.00 89 1013.0
20260905081021 26 209 0.0 0.0 0.00 0.00 0.00 89 1013.1
20260905080515 26 218 0.0 0.0 0.00 0.00 0.00 89 1013.2
20260905080011 26 218 0.0 0.0 0.00 0.00 0.00 88 1013.2
20260905075503 26 213 0.0 0.0 0.00 0.00 0.00 88 1013.1
20260905075003 26 214 0.0 0.0 0.00 0.00 0.00 88 1013.0
20260905074458 26 218 0.0 0.0 0.00 0.00 0.00 88 1013.0
20260905073954 26 232 0.0 0.0 0.00 0.00 0.00 89 1013.2
20260905073448 26 217 0.0 1.6 0.00 0.00 0.00 89 1013.2
20260905072944 26 210 0.0 0.0 0.00 0.00 0.00 90 1013.2
20260905072438 26 206 0.0 0.0 0.00 0.00 0.00 90 1013.1
20260905071934 26 214 0.0 0.0 0.00 0.00 0.00 90 1013.4
20260905071426 26 209 0.0 0.0 0.00 0.00 0.00 90 1013.0
20260905070924 26 209 0.0 0.0 0.00 0.00 0.00 90 1013.0
20260905070421 26 209 0.0 0.0 0.00 0.00 0.00 90 1013.2
20260905065920 25 208 0.0 0.0 0.00 0.00 0.00 90 1013.1